KAL5N RJTT-RKSI

Flight info

Callsign KAL5N
Flight time N/A
Altitude 40000
Route BEKLA Y18 PIGAP Y182 BIDIK Y16 SAPRA Y685 GUKDO GUKDO2T
Aircraft A359/H-SDE2E3GHIJ3J4J5LM1ORWXY/LB1D1

Departure

Time N/A
Airport Tokyo Haneda International Airport (RJTT)

Arrival

Time 2026-05-07 16:43
Airport Incheon International Airport (RKSI)
Time Latitude Longitude Altitude Speed Heading
2026-05-07 15:42 35.82922 130.68238 39851 ft 414 kts 274°
2026-05-07 15:42 35.83330 130.64721 39853 ft 415 kts 274°
2026-05-07 15:43 35.84230 130.57685 39852 ft 415 kts 275°
2026-05-07 15:43 35.85143 130.50659 39853 ft 415 kts 275°
2026-05-07 15:44 35.86033 130.43676 39861 ft 415 kts 275°
2026-05-07 15:44 35.86918 130.36636 39852 ft 414 kts 274°
2026-05-07 15:45 35.87793 130.29608 39854 ft 414 kts 274°
2026-05-07 15:45 35.88663 130.22597 39852 ft 414 kts 274°
2026-05-07 15:46 35.90720 130.12209 39854 ft 423 kts 287°
2026-05-07 15:47 35.93506 130.05766 39857 ft 433 kts 297°
2026-05-07 15:47 35.97731 130.00222 39860 ft 453 kts 314°
2026-05-07 15:47 36.00362 129.98111 39857 ft 465 kts 323°
2026-05-07 15:48 36.03373 129.96497 39858 ft 478 kts 333°
2026-05-07 15:48 36.06643 129.95515 39857 ft 491 kts 342°
2026-05-07 15:48 36.10108 129.95239 39857 ft 505 kts 353°
2026-05-07 15:48 36.13640 129.95736 39856 ft 519 kts
2026-05-07 15:49 36.17139 129.97050 39874 ft 532 kts 15°
2026-05-07 15:49 36.20454 129.99192 39860 ft 544 kts 28°
2026-05-07 15:49 36.23468 130.02084 39857 ft 551 kts 37°
2026-05-07 15:50 36.29709 130.07367 39852 ft 533 kts 14°
2026-05-07 15:50 36.33228 130.08555 39860 ft 515 kts 358°
2026-05-07 15:50 36.36728 130.08610 39846 ft 495 kts 343°
2026-05-07 15:50 36.39977 130.07581 39849 ft 473 kts 327°
2026-05-07 15:51 36.42754 130.05589 39845 ft 451 kts 311°
2026-05-07 15:51 36.44864 130.02837 39887 ft 433 kts 296°
2026-05-07 15:51 36.46481 129.99700 39845 ft 427 kts 292°
2026-05-07 15:52 36.48894 129.93113 39848 ft 417 kts 283°
2026-05-07 15:52 36.50679 129.86324 39848 ft 415 kts 281°
2026-05-07 15:53 36.52305 129.79478 39609 ft 408 kts 280°
2026-05-07 15:53 36.53101 129.76107 39125 ft 404 kts 280°
2026-05-07 15:53 36.53894 129.72763 38546 ft 403 kts 279°
2026-05-07 15:53 36.54691 129.69412 37783 ft 403 kts 279°
2026-05-07 15:54 36.55490 129.66059 36974 ft 405 kts 279°
2026-05-07 15:54 36.56293 129.62692 36148 ft 407 kts 279°
2026-05-07 15:54 36.57100 129.59309 35339 ft 409 kts 279°
2026-05-07 15:54 36.57913 129.55904 34557 ft 411 kts 279°
2026-05-07 15:55 36.58729 129.52488 33746 ft 413 kts 279°
2026-05-07 15:55 36.59550 129.49044 32805 ft 416 kts 279°
2026-05-07 15:55 36.60375 129.45578 31890 ft 419 kts 279°
2026-05-07 15:55 36.61201 129.42101 31015 ft 420 kts 280°
2026-05-07 15:56 36.62020 129.38657 30282 ft 419 kts 280°
2026-05-07 15:56 36.62857 129.35141 29557 ft 416 kts 280°
2026-05-07 15:56 36.63664 129.31736 28726 ft 416 kts 280°
2026-05-07 15:56 36.64465 129.28344 27994 ft 414 kts 280°
2026-05-07 15:57 36.65275 129.24915 27340 ft 410 kts 280°
2026-05-07 15:57 36.66077 129.21522 26659 ft 406 kts 280°
2026-05-07 15:57 36.66868 129.18165 26024 ft 403 kts 280°
2026-05-07 15:57 36.67653 129.14828 25412 ft 399 kts 280°
2026-05-07 15:58 36.68427 129.11534 25049 ft 393 kts 280°
2026-05-07 15:58 36.69187 129.08285 24864 ft 391 kts 280°
2026-05-07 15:58 36.69948 129.05018 24871 ft 393 kts 280°
2026-05-07 15:58 36.70711 129.01747 24879 ft 393 kts 280°
2026-05-07 15:59 36.71477 128.98470 24882 ft 394 kts 280°
2026-05-07 15:59 36.72231 128.95238 24882 ft 394 kts 280°
2026-05-07 15:59 36.72997 128.91946 24882 ft 394 kts 280°
2026-05-07 15:59 36.73758 128.88677 24796 ft 392 kts 280°
2026-05-07 16:00 36.74516 128.85423 24567 ft 389 kts 280°
2026-05-07 16:00 36.75265 128.82196 24349 ft 387 kts 280°
2026-05-07 16:00 36.76008 128.78982 24121 ft 386 kts 280°
2026-05-07 16:00 36.76750 128.75773 23885 ft 384 kts 280°
2026-05-07 16:01 36.77488 128.72571 23678 ft 384 kts 280°
2026-05-07 16:01 36.78222 128.69382 23464 ft 383 kts 280°
2026-05-07 16:01 36.78954 128.66208 23195 ft 382 kts 280°
2026-05-07 16:01 36.79688 128.63022 22959 ft 380 kts 279°
2026-05-07 16:02 36.80412 128.59872 22695 ft 377 kts 279°
2026-05-07 16:02 36.81133 128.56728 22427 ft 376 kts 279°
2026-05-07 16:02 36.81849 128.53600 22160 ft 375 kts 279°
2026-05-07 16:02 36.82559 128.50495 21910 ft 373 kts 279°
2026-05-07 16:03 36.83262 128.47410 21655 ft 374 kts 279°
2026-05-07 16:03 36.83975 128.44289 21411 ft 373 kts 279°
2026-05-07 16:03 36.84686 128.41176 21155 ft 372 kts 279°
2026-05-07 16:03 36.85388 128.38081 20918 ft 371 kts 279°
2026-05-07 16:04 36.86092 128.34985 20667 ft 370 kts 279°
2026-05-07 16:04 36.86796 128.31883 20415 ft 370 kts 279°
2026-05-07 16:04 36.87501 128.28797 20175 ft 369 kts 279°
2026-05-07 16:04 36.88198 128.25714 19945 ft 369 kts 279°
2026-05-07 16:05 36.88893 128.22631 19696 ft 368 kts 279°
2026-05-07 16:05 36.89585 128.19553 19464 ft 368 kts 279°
2026-05-07 16:05 36.90278 128.16482 19256 ft 366 kts 278°
2026-05-07 16:05 36.90969 128.13423 19020 ft 365 kts 278°
2026-05-07 16:06 36.91654 128.10377 18782 ft 364 kts 278°
2026-05-07 16:06 36.92335 128.07335 18566 ft 364 kts 278°
2026-05-07 16:06 36.93009 128.04330 18347 ft 363 kts 278°
2026-05-07 16:06 36.93689 128.01292 18096 ft 363 kts 278°
2026-05-07 16:07 36.94364 127.98271 17932 ft 354 kts 278°
2026-05-07 16:07 36.95019 127.95380 17936 ft 335 kts 278°
2026-05-07 16:07 36.95636 127.92642 17909 ft 318 kts 278°
2026-05-07 16:07 36.96216 127.90063 17907 ft 300 kts 277°
2026-05-07 16:08 36.96763 127.87618 17904 ft 283 kts 277°
2026-05-07 16:08 36.97278 127.85292 17914 ft 275 kts 277°
2026-05-07 16:08 36.97781 127.82991 17887 ft 275 kts 276°
2026-05-07 16:08 36.98287 127.80674 17911 ft 277 kts 276°
2026-05-07 16:09 36.98798 127.78346 17911 ft 278 kts 276°
2026-05-07 16:09 36.99314 127.76004 17929 ft 284 kts 276°
2026-05-07 16:09 36.99854 127.73495 17924 ft 312 kts 277°
2026-05-07 16:09 37.00444 127.70759 17932 ft 339 kts 278°
2026-05-07 16:10 37.01087 127.67842 17918 ft 353 kts 279°
2026-05-07 16:10 37.01859 127.64897 17913 ft 361 kts 284°
2026-05-07 16:10 37.03026 127.62078 17788 ft 369 kts 294°
2026-05-07 16:10 37.03976 127.60305 17624 ft 371 kts 296°
2026-05-07 16:11 37.05952 127.56803 17266 ft 369 kts 297°
2026-05-07 16:11 37.07422 127.54192 17015 ft 367 kts 297°
2026-05-07 16:11 37.08396 127.52456 16838 ft 366 kts 297°
2026-05-07 16:11 37.09851 127.49857 16588 ft 364 kts 297°
2026-05-07 16:12 37.11217 127.47168 16584 ft 358 kts 291°
2026-05-07 16:12 37.12136 127.44386 16563 ft 339 kts 281°
2026-05-07 16:12 37.12524 127.41569 16345 ft 319 kts 269°
2026-05-07 16:12 37.12465 127.38796 15535 ft 321 kts 263°
2026-05-07 16:13 37.12271 127.36013 15009 ft 319 kts 263°
2026-05-07 16:13 37.12073 127.33260 14568 ft 314 kts 264°
2026-05-07 16:13 37.11877 127.30551 14130 ft 310 kts 264°
2026-05-07 16:13 37.11683 127.27857 13673 ft 312 kts 264°
2026-05-07 16:14 37.11488 127.25158 13201 ft 311 kts 264°
2026-05-07 16:14 37.11294 127.22491 12769 ft 311 kts 264°
2026-05-07 16:14 37.11097 127.19790 12315 ft 312 kts 265°
2026-05-07 16:14 37.10900 127.17084 11868 ft 312 kts 265°
2026-05-07 16:15 37.10702 127.14377 11426 ft 311 kts 265°
2026-05-07 16:15 37.10504 127.11687 11092 ft 305 kts 265°
2026-05-07 16:15 37.10314 127.09109 10953 ft 289 kts 265°
2026-05-07 16:15 37.10132 127.06667 10816 ft 274 kts 265°
2026-05-07 16:16 37.09960 127.04347 10688 ft 261 kts 265°
2026-05-07 16:16 37.09795 127.02130 10558 ft 250 kts 265°
2026-05-07 16:16 37.09637 127.00007 10431 ft 241 kts 265°
2026-05-07 16:16 37.09482 126.97949 10286 ft 234 kts 266°
2026-05-07 16:17 37.09331 126.95927 10164 ft 237 kts 266°
2026-05-07 16:17 37.09177 126.93867 10027 ft 238 kts 266°
2026-05-07 16:17 37.09021 126.91784 9838 ft 247 kts 266°
2026-05-07 16:17 37.08857 126.89593 9779 ft 256 kts 266°
2026-05-07 16:18 37.08690 126.87389 9570 ft 249 kts 266°
2026-05-07 16:18 37.08527 126.85259 9373 ft 239 kts 266°
2026-05-07 16:18 37.08371 126.83222 9190 ft 230 kts 266°
2026-05-07 16:18 37.08302 126.81259 9008 ft 220 kts 275°
2026-05-07 16:19 37.08737 126.79487 8843 ft 212 kts 298°
2026-05-07 16:19 37.09726 126.78147 8561 ft 215 kts 318°
2026-05-07 16:19 37.10967 126.77043 8242 ft 216 kts 321°
2026-05-07 16:19 37.12204 126.75985 7932 ft 216 kts 321°
2026-05-07 16:20 37.13420 126.74934 7625 ft 214 kts 321°
2026-05-07 16:20 37.14642 126.73871 7327 ft 212 kts 322°
2026-05-07 16:20 37.15844 126.72819 7057 ft 209 kts 322°
2026-05-07 16:20 37.17034 126.71780 6804 ft 208 kts 322°
2026-05-07 16:21 37.18228 126.70728 6448 ft 210 kts 322°
2026-05-07 16:21 37.19424 126.69670 6102 ft 210 kts 323°
2026-05-07 16:21 37.20581 126.68648 5782 ft 209 kts 324°
2026-05-07 16:21 37.21784 126.67618 5448 ft 209 kts 325°
2026-05-07 16:22 37.22977 126.66590 5115 ft 208 kts 324°
2026-05-07 16:22 37.24157 126.65549 4783 ft 207 kts 325°
2026-05-07 16:22 37.25330 126.64507 4458 ft 205 kts 325°
2026-05-07 16:22 37.26467 126.63497 4263 ft 199 kts 325°
2026-05-07 16:23 37.27588 126.62502 4250 ft 197 kts 326°
2026-05-07 16:23 37.28679 126.61537 4155 ft 193 kts 326°
2026-05-07 16:23 37.29733 126.60600 3925 ft 177 kts 326°
2026-05-07 16:23 37.30701 126.59741 3686 ft 163 kts 326°
2026-05-07 16:24 37.31593 126.58950 3447 ft 151 kts 326°
2026-05-07 16:24 37.32422 126.58213 3241 ft 144 kts 326°
2026-05-07 16:24 37.33237 126.57491 3045 ft 143 kts 327°
2026-05-07 16:24 37.34037 126.56780 2851 ft 136 kts 327°
2026-05-07 16:25 37.34772 126.56126 2669 ft 126 kts 327°
2026-05-07 16:25 37.35484 126.55495 2515 ft 125 kts 327°
2026-05-07 16:25 37.36195 126.54864 2344 ft 125 kts 327°
2026-05-07 16:25 37.36906 126.54233 2170 ft 125 kts 326°
2026-05-07 16:26 37.37620 126.53597 1994 ft 125 kts 326°
2026-05-07 16:26 37.38325 126.52972 1824 ft 126 kts 326°
2026-05-07 16:26 37.39044 126.52332 1662 ft 128 kts 325°
2026-05-07 16:26 37.39775 126.51682 1473 ft 130 kts 324°
2026-05-07 16:27 37.40508 126.51029 1306 ft 126 kts 324°
2026-05-07 16:27 37.41204 126.50410 1121 ft 119 kts 324°
2026-05-07 16:27 37.41877 126.49811 963 ft 118 kts 324°
2026-05-07 16:27 37.42552 126.49212 806 ft 119 kts 322°
2026-05-07 16:28 37.43229 126.48607 648 ft 120 kts 322°
2026-05-07 16:28 37.43926 126.47998 434 ft 123 kts 323°
2026-05-07 16:28 37.44642 126.47380 321 ft 126 kts 322°
2026-05-07 16:28 37.45345 126.46727 218 ft 125 kts 322°
2026-05-07 16:29 37.45990 126.46151 92 ft 122 kts 324°
2026-05-07 16:29 37.46618 126.45596 69 ft 118 kts 323°
2026-05-07 16:29 37.47380 126.44904 223 ft 159 kts 323°
2026-05-07 16:29 37.48366 126.44007 829 ft 186 kts 323°
2026-05-07 16:30 37.49366 126.43104 1677 ft 159 kts 325°
2026-05-07 16:30 37.50220 126.42413 2519 ft 139 kts 336°
2026-05-07 16:30 37.51219 126.42382 2942 ft 160 kts 11°
2026-05-07 16:30 37.52179 126.43355 3120 ft 202 kts 47°
2026-05-07 16:31 37.52626 126.45150 3041 ft 229 kts 81°
2026-05-07 16:31 37.52270 126.47144 3001 ft 239 kts 107°
2026-05-07 16:31 37.51248 126.48779 3000 ft 247 kts 137°
2026-05-07 16:31 37.49841 126.50030 2997 ft 247 kts 145°
2026-05-07 16:32 37.48390 126.51205 2990 ft 248 kts 146°
2026-05-07 16:32 37.46933 126.52375 2998 ft 248 kts 146°
2026-05-07 16:32 37.45482 126.53545 2994 ft 247 kts 146°
2026-05-07 16:32 37.44038 126.54723 2991 ft 247 kts 146°
2026-05-07 16:33 37.42597 126.55891 2995 ft 246 kts 146°
2026-05-07 16:33 37.41149 126.57053 2998 ft 246 kts 146°
2026-05-07 16:33 37.39751 126.58309 3196 ft 247 kts 139°
2026-05-07 16:33 37.38431 126.59657 3706 ft 247 kts 139°
2026-05-07 16:34 37.37120 126.61040 4405 ft 245 kts 138°
2026-05-07 16:34 37.35828 126.62433 4860 ft 245 kts 138°
2026-05-07 16:34 37.34538 126.63842 4985 ft 245 kts 138°
2026-05-07 16:34 37.33253 126.65259 4991 ft 246 kts 138°
2026-05-07 16:35 37.31904 126.66592 4986 ft 248 kts 149°
2026-05-07 16:35 37.30269 126.67186 4916 ft 244 kts 181°
2026-05-07 16:35 37.28643 126.66814 4533 ft 236 kts 208°
2026-05-07 16:35 37.27342 126.65679 4117 ft 227 kts 228°
2026-05-07 16:36 37.26187 126.64328 3987 ft 228 kts 230°
2026-05-07 16:36 37.25355 126.62708 3981 ft 217 kts 262°
2026-05-07 16:36 37.25536 126.60953 3983 ft 200 kts 303°
2026-05-07 16:36 37.26564 126.59970 3979 ft 182 kts 345°
2026-05-07 16:37 37.27781 126.59674 3981 ft 176 kts 344°
2026-05-07 16:37 37.28963 126.59285 3922 ft 175 kts 344°
2026-05-07 16:37 37.30121 126.58900 3725 ft 168 kts 344°
2026-05-07 16:37 37.31227 126.58484 3486 ft 162 kts 340°
2026-05-07 16:38 37.32249 126.57948 3260 ft 156 kts 333°
2026-05-07 16:38 37.33166 126.57308 3043 ft 149 kts 330°
2026-05-07 16:38 37.34026 126.56647 2835 ft 141 kts 329°
2026-05-07 16:38 37.34823 126.56003 2642 ft 131 kts 329°
2026-05-07 16:39 37.35559 126.55386 2475 ft 124 kts 328°
2026-05-07 16:39 37.36278 126.54782 2316 ft 124 kts 328°
2026-05-07 16:39 37.36977 126.54163 2149 ft 121 kts 326°
2026-05-07 16:39 37.37652 126.53558 1981 ft 117 kts 327°
2026-05-07 16:40 37.38311 126.52976 1823 ft 114 kts 326°
2026-05-07 16:40 37.38964 126.52400 1673 ft 116 kts 324°
2026-05-07 16:40 37.39628 126.51809 1500 ft 118 kts 325°
2026-05-07 16:40 37.40303 126.51210 1350 ft 120 kts 325°
2026-05-07 16:41 37.40976 126.50612 1183 ft 121 kts 324°
2026-05-07 16:41 37.41679 126.49987 1021 ft 122 kts 324°
2026-05-07 16:41 37.42373 126.49371 836 ft 122 kts 322°
2026-05-07 16:41 37.43068 126.48750 678 ft 123 kts 323°
2026-05-07 16:42 37.43766 126.48128 516 ft 126 kts 322°
2026-05-07 16:42 37.44495 126.47485 390 ft 129 kts 324°
2026-05-07 16:42 37.45220 126.46847 205 ft 124 kts 324°
2026-05-07 16:42 37.45912 126.46218 50 ft 120 kts 325°
2026-05-07 16:43 37.46561 126.45647 38 ft 106 kts 324°
2026-05-07 16:43 37.46986 126.45265 40 ft 44 kts 323°
2026-05-07 16:43 37.47217 126.45059 40 ft 39 kts 325°
2026-05-07 16:43 37.47360 126.44919 39 ft 21 kts 314°
2026-05-07 16:44 37.47444 126.44765 38 ft 21 kts 297°
2026-05-07 16:44 37.47453 126.44649 36 ft 4 kts 220°
2026-05-07 16:44 37.47416 126.44623 39 ft 8 kts 207°
2026-05-07 16:44 37.47356 126.44582 38 ft 12 kts 221°
2026-05-07 16:45 37.47306 126.44490 38 ft 15 kts 236°
2026-05-07 16:45 37.47238 126.44371 38 ft 18 kts 234°
2026-05-07 16:45 37.47159 126.44231 38 ft 21 kts 235°
2026-05-07 16:45 37.47069 126.44070 38 ft 23 kts 235°
2026-05-07 16:46 37.47003 126.44015 38 ft 10 kts 170°
2026-05-07 16:46 37.46938 126.44073 38 ft 14 kts 135°
2026-05-07 16:46 37.46907 126.44113 38 ft 0 kts 133°
2026-05-07 16:47 37.46894 126.44128 38 ft 4 kts 145°
2026-05-07 16:47 37.46870 126.44119 38 ft 5 kts 215°
2026-05-07 16:47 37.46828 126.44078 37 ft 10 kts 222°
2026-05-07 16:48 37.46800 126.44046 38 ft 0 kts 221°